Location: Savignac
(42.7288°N, 1.8162°E)
Time: 12:16:03
(UTC+00:00)

Daily predictions for brighter satellites

Satellite Brightness Start Highest point End
(mag) Time Altitude Azimuth Time Altitude Azimuth Time Altitude Azimuth
NOSS 2-2 (C) 3.6 16:49:02 10° SW 16:52:22 46° NW 16:55:17 10° NNE
BREEZE-M DEB (TANK) 4.3 16:49:56 10° WNW 16:52:26 26° N 16:58:11 10° ENE
SMAP 3.3 16:48:53 10° SE 16:53:19 47° ENE 16:57:47 10° N
CZ-2D R/B 3.9 16:51:24 10° SE 16:53:55 22° ENE 16:56:27 10° NNE
Cosmos 1626 Rocket 3.7 16:50:39 10° N 16:54:51 47° ENE 16:58:59 10° SSE
NOSS 3-2 (C) 3.8 16:52:50 10° S 16:57:12 33° ESE 17:02:09 10° NE
Thor Agena Rocket 3.5 16:52:55 10° SSE 16:58:06 68° ENE 17:03:16 10° N
NOSS 3-2 (A) 3.1 16:53:47 10° SW 16:58:39 87° WNW 17:04:28 10° NE
Landsat 7 4.1 16:55:09 10° SE 16:59:29 41° ENE 17:03:52 10° N
Cosmos 1634 Rocket 4.1 16:55:52 10° S 17:02:04 81° W 17:08:16 10° N
Cosmos 2151 3.8 16:59:51 10° NNE 17:03:28 28° ENE 17:07:05 10° SE
BlueWalker 3 2.4 17:01:42 10° NW 17:05:07 37° NNE 17:08:30 10° E
Cosmos 1484 Rocket 3.6 17:04:22 10° S 17:07:48 50° W 17:11:14 10° NNW
Cosmos 1743 2.9 17:05:10 10° NNE 17:08:09 32° ENE 17:11:06 10° SE
ATLAS CENTAUR R/B 1.8 17:05:49 10° N 17:08:34 24° NE 17:11:12 10° ESE
Lacrosse 4 Rocket 3.3 17:05:32 10° WSW 17:08:50 23° NW 17:12:09 10° N
Cosmos 1544 Rocket 3.5 17:05:04 10° S 17:09:25 72° E 17:13:50 10° NNE
UNK 3.7 17:05:49 10° NNE 17:10:25 80° ESE 17:14:59 10° S
Cosmos 1656 3.7 17:05:49 10° SSW 17:11:23 80° ESE 17:17:04 10° NNE
Okean 1-7 Rocket 4.5 17:07:46 10° NNE 17:11:30 26° ENE 17:15:11 10° SE
Cosmos 2297 Rocket 2.5 17:06:43 10° NNW 17:12:07 42° ENE 17:17:27 10° SE
Cosmos 1461 3.7 17:09:24 10° S 17:12:46 29° ESE 17:15:27 14° ENE
IRIDIUM 104 4.5 17:13:57 10° N 17:19:03 50° E 17:24:06 10° SSE
Meteor 1-28 Rocket 4.4 17:16:01 10° N 17:19:09 37° WNW 17:22:16 10° SW
Cosmos 2279 Rocket 4.1 17:13:20 10° S 17:19:32 86° W 17:25:48 10° N
SAR-Lupe-3 4.4 17:23:18 21° NE 17:24:28 32° E 17:26:47 10° SSE
Lacrosse 5 rocket 3.1 17:22:50 10° WNW 17:25:38 20° NNW 17:28:24 10° NNE
SAR-Lupe-4 3.4 17:23:03 10° SSE 17:26:35 73° ENE 17:30:09 10° N
SKYMED 2 4.3 17:23:09 10° NNE 17:27:05 32° E 17:31:00 10° SSE
IRIDIUM 114 4.3 17:23:01 10° N 17:28:13 62° E 17:33:22 10° SSE
MOS 1 Rocket 3.4 17:24:25 10° SSE 17:29:05 58° ENE 17:34:02 10° N
COSMO-SKYMED 1 3.6 17:29:12 19° ENE 17:30:39 23° E 17:33:55 10° SSE
Cosmos 2180 Rocket 4.4 17:26:18 10° S 17:32:25 84° E 17:38:36 10° N
Cosmos 1602 Rocket 3.5 17:28:20 10° N 17:32:43 65° E 17:37:01 10° SSE
SAR-Lupe-1 3.9 17:30:18 10° SSE 17:33:52 77° ENE 17:37:30 10° N
Cosmos 1777 Rocket 3.9 17:29:36 10° S 17:34:50 73° ESE 17:40:05 10° NNE
Cosmos 2084 Rocket 4.4 17:33:04 10° NNW 17:36:41 27° NE 17:37:51 23° ENE
Cosmos 1980 Rocket 3.5 17:33:01 10° SE 17:36:55 19° E 17:37:43 19° E
CZ-4C R/B 3.2 17:30:15 10° NNW 17:37:01 49° NE 17:45:18 10° ESE
CZ-2D R/B 4.1 17:33:37 10° SE 17:37:23 33° ENE 17:41:09 10° N
IRIDIUM 103 4.2 17:32:09 10° N 17:37:24 75° E 17:42:36 10° S
Cosmos 724 4.4 17:31:53 10° NNW 17:37:50 56° NE 17:43:36 10° SE
IRS-P3 4.0 17:33:43 10° SSE 17:38:59 70° ENE 17:44:17 10° N
Cosmos 1782 3.7 17:37:10 10° SSW 17:40:38 44° WNW 17:44:06 10° N
Cosmos 1867 4.2 17:35:55 10° NNW 17:40:54 34° NE 17:44:00 20° E
YAOGAN 1 3.2 17:38:56 10° SE 17:42:40 31° ENE 17:46:26 10° N
Cosmos 1733 4.2 17:44:09 10° NW 17:45:44 22° W 17:47:17 10° SSW
ERS-1 4.5 17:40:45 10° SSE 17:45:48 86° WSW 17:50:49 10° NNW
Cosmos 1486 Rocket 4.4 17:44:13 10° SSW 17:49:21 65° WNW 17:54:35 10° NNE
SJ-12 4.4 17:49:58 10° S 17:53:39 55° W 17:57:23 10° NNW
Cosmos 2263 Rocket 3.2 17:49:06 10° N 17:53:42 25° NE 17:53:46 25° NE
Cosmos 1953 Rocket 4.5 17:50:43 10° NNE 17:57:39 16° SE 17:58:42 10° SE
CENTAUR R/B 4.2 17:49:56 10° W 17:54:48 25° NNW 18:00:36 10° NNE
USA 238 DEB 4.2 17:51:27 10° S 17:56:39 32° ESE 17:58:22 27° E
USA 238 4.2 17:51:35 10° S 17:56:46 31° ESE 17:58:26 27° E
SJ-6F 4.5 17:52:58 10° S 17:56:54 76° WSW 18:00:54 10° NNW
Cosmos 1933 3.0 17:53:11 10° S 17:57:00 81° E 17:59:50 18° N
Cosmos 2266 Rocket 4.0 17:52:41 10° N 17:58:53 86° W 18:04:56 10° S
SL-16 R/B 4.4 17:54:33 10° N 17:59:38 27° WNW 18:04:41 10° WSW
Cosmos 1607 3.8 17:55:11 10° NNW 18:01:26 78° NE 18:07:44 10° SE
USA 81 4.5 17:56:40 10° NNE 18:01:31 36° ENE 18:06:21 10° SE
NOSS 2-3 (C) 4.2 17:58:59 10° S 18:01:25 27° SE 18:01:25 27° SE
Cosmos 2227 Rocket 2.4 17:57:38 10° NNW 18:03:05 46° ENE 18:06:42 20° SE
ARIANE 5 R/B 3.6 18:01:28 10° S 18:06:16 45° W 18:11:10 10° NNW
USA 215 4.2 18:04:26 24° NE 18:06:40 30° NNE 18:12:10 10° NW
Cosmos 1825 Rocket 3.4 18:02:41 10° N 18:07:03 75° E 18:11:21 10° SSE
BREEZE-M DEB (TANK) 4.1 17:58:28 10° SSW 18:07:23 38° SE 18:09:01 30° ESE
NOAA 6 4.3 18:03:27 10° SE 18:08:16 43° ENE 18:13:04 10° N
SPOT 1/Viking Rocket 3.5 18:04:06 10° SSE 18:09:18 87° ENE 18:14:32 10° NNW
BREEZE M DEB (TANK) 3.4 18:07:40 10° W 18:09:12 27° NW 18:09:12 27° NW
IRAS Rocket 4.2 18:07:23 10° SSE 18:12:46 59° ENE 18:18:09 10° N
BREEZE-M DEB (TANK) 3.3 18:12:49 10° WNW 18:13:35 21° WNW 18:13:35 21° WNW
Cosmos 2058 Rocket 4.2 18:13:09 10° SSE 18:15:38 29° SE 18:15:38 29° SE
Cosmos 990 Rocket 3.8 18:12:22 10° SSW 18:17:29 86° ESE 18:20:06 30° NNE
Cosmos 1697 Rocket 2.6 18:13:03 10° SSW 18:18:40 86° WNW 18:21:56 26° NNE
USA 290 3.8 18:19:38 10° NW 18:22:40 36° WSW 18:25:40 10° S
Helios 1A Rocket 3.8 18:25:10 30° S 18:25:10 30° S 18:27:02 10° S
Gbstr 26 Del rocket 2.6 18:21:38 10° SW 18:25:30 83° WSW 18:25:30 83° WSW
Meteor 1-26 Rocket 4.4 18:25:58 10° SSE 18:30:20 46° SE 18:30:20 46° SE
Cosmos 1244 Rocket 4.4 18:32:11 10° N 18:38:24 58° E 18:44:30 10° SSE
BlueWalker 3 3.3 18:39:19 10° WNW 18:42:35 34° SW 18:42:35 34° SW
NOSS 2-3 (E) 4.1 18:38:59 10° SW 18:41:41 45° WSW 18:41:41 45° WSW
ATLAS CENTAUR R/B 3.2 18:40:49 10° WNW 18:43:16 20° WSW 18:44:08 18° SW
Resurs 1-3 4.1 18:40:32 10° S 18:44:45 57° W 18:49:00 10° NNW
NOSS 2-3 (D) 4.3 18:42:12 10° SW 18:44:44 40° SW 18:44:44 40° SW
Cosmos 1076 Rocket 3.9 18:43:01 10° NNW 18:47:15 62° W 18:51:30 10° S
NOSS 3-2 (C) 4.3 18:43:06 10° WSW 18:47:50 38° NW 18:50:02 28° N
Cosmos 1461 4.4 18:46:07 10° WSW 18:49:28 27° NW 18:49:36 27° NW
Cosmos 1655 Rocket 4.3 18:43:47 10° NNW 18:49:57 65° W 18:56:05 10° S
Cosmos 2297 Rocket 4.1 18:51:07 10° NW 18:55:55 29° WSW 19:00:42 10° SSW
Meteor 2-10 4.5 18:57:53 10° NNW 19:09:10 - S 19:02:08 57° NNW
COSMO-SKYMED 1 4.2 19:05:31 29° WNW 19:05:57 30° WNW 19:09:32 10° SW
Cosmos 1980 Rocket 2.7 19:14:44 10° SW 19:19:32 56° W 19:19:32 56° W
CZ-4C R/B 3.9 19:18:26 10° NW 19:25:35 49° WSW 19:34:01 10° S
Cosmos 2263 Rocket 3.6 19:32:25 10° NNW 19:35:30 32° NW 19:35:30 32° NW
Cosmos 2227 Rocket 4.1 19:42:13 10° NW 19:46:48 26° WSW 19:48:42 22° SW
USA 238 DEB 4.4 19:41:18 10° WSW 19:45:51 43° W 19:45:51 43° W
USA 238 4.4 19:41:23 10° WSW 19:45:54 43° W 19:45:54 43° W
USA 215 4.4 19:51:46 34° NNW 19:51:46 34° NNW 19:55:21 10° NW
BREEZE-M DEB (TANK) 4.4 19:50:35 10° WNW 20:28:38 - SE 19:55:13 75° W
